PRF421 HTZA-HTDA

Flight info

Callsign PRF421
Flight time N/A
Altitude 10000
Route ETULO/N0285F090 DCT GAGMU
Aircraft AT75/M-SDFGIRY/S

Departure

Time 2026-05-06 14:46
Airport Abeid Amani Karume International Airport (HTZA)

Arrival

Time N/A
Airport Julius Nyerere International Airport (HTDA)
Time Latitude Longitude Altitude Speed Heading
2026-05-06 14:25 -6.21861 39.22203 52 ft 0 kts 264°
2026-05-06 14:39 -6.21861 39.22207 52 ft 1 kts 264°
2026-05-06 14:39 -6.21860 39.22214 49 ft 1 kts 264°
2026-05-06 14:39 -6.21859 39.22219 50 ft 1 kts 263°
2026-05-06 14:39 -6.21858 39.22227 52 ft 1 kts 263°
2026-05-06 14:40 -6.21858 39.22234 52 ft 1 kts 263°
2026-05-06 14:40 -6.21857 39.22241 52 ft 1 kts 263°
2026-05-06 14:40 -6.21856 39.22249 52 ft 1 kts 263°
2026-05-06 14:40 -6.21855 39.22256 52 ft 1 kts 281°
2026-05-06 14:41 -6.21858 39.22263 52 ft 1 kts 308°
2026-05-06 14:41 -6.21863 39.22269 53 ft 1 kts 335°
2026-05-06 14:41 -6.21868 39.22271 50 ft 0 kts 353°
2026-05-06 14:44 -6.21826 39.22272 52 ft 20 kts
2026-05-06 14:44 -6.21802 39.22277 49 ft 4 kts 17°
2026-05-06 14:45 -6.21763 39.22425 50 ft 15 kts 109°
2026-05-06 14:45 -6.21897 39.22459 56 ft 42 kts 175°
2026-05-06 14:45 -6.22390 39.22508 52 ft 98 kts 174°
2026-05-06 14:45 -6.23181 39.22602 221 ft 120 kts 173°
2026-05-06 14:46 -6.23999 39.22699 730 ft 121 kts 171°
2026-05-06 14:46 -6.24891 39.22724 1140 ft 131 kts 185°
2026-05-06 14:46 -6.25817 39.22546 1628 ft 139 kts 192°
2026-05-06 14:46 -6.26705 39.22106 2060 ft 150 kts 204°
2026-05-06 14:47 -6.27715 39.21652 2232 ft 169 kts 197°
2026-05-06 14:47 -6.28882 39.21332 2408 ft 178 kts 186°
2026-05-06 14:47 -6.30095 39.20925 2442 ft 200 kts 212°
2026-05-06 14:47 -6.31184 39.19994 2429 ft 208 kts 209°
2026-05-06 14:48 -6.32578 39.19663 2436 ft 211 kts 171°
2026-05-06 14:48 -6.34009 39.19934 2420 ft 212 kts 179°
2026-05-06 14:48 -6.35482 39.19679 2420 ft 218 kts 189°
2026-05-06 14:48 -6.36993 39.19402 2475 ft 219 kts 186°
2026-05-06 14:49 -6.38432 39.19239 3028 ft 198 kts 182°
2026-05-06 14:49 -6.39747 39.19155 3558 ft 182 kts 180°
2026-05-06 14:49 -6.40964 39.19088 4044 ft 170 kts 181°
2026-05-06 14:49 -6.42115 39.19034 4516 ft 161 kts 180°
2026-05-06 14:50 -6.43205 39.18982 4935 ft 155 kts 180°
2026-05-06 14:50 -6.44280 39.18933 5289 ft 156 kts 180°
2026-05-06 14:50 -6.45402 39.18876 5592 ft 172 kts 181°
2026-05-06 14:50 -6.46668 39.18791 5754 ft 192 kts 182°
2026-05-06 14:51 -6.48073 39.18687 5848 ft 212 kts 183°
2026-05-06 14:51 -6.49604 39.18567 5892 ft 229 kts 183°
2026-05-06 14:51 -6.51240 39.18454 5907 ft 242 kts 182°
2026-05-06 14:51 -6.52958 39.18347 5917 ft 252 kts 182°
2026-05-06 14:52 -6.54735 39.18236 5931 ft 259 kts 182°
2026-05-06 14:52 -6.56532 39.18125 5934 ft 265 kts 182°
2026-05-06 14:52 -6.58387 39.18011 5919 ft 269 kts 182°
2026-05-06 14:52 -6.60291 39.17892 5932 ft 272 kts 182°
2026-05-06 14:53 -6.62187 39.17774 5923 ft 274 kts 182°
2026-05-06 14:53 -6.62549 39.17751 5931 ft 0 kts 182°